TimeCDT,TemperatureF,Dew PointF,Humidity,Sea Level PressureIn,VisibilityMPH,Wind Direction,Wind SpeedMPH,Gust SpeedMPH,PrecipitationIn,Events,Conditions,WindDirDegrees,DateUTC
12:43 AM,64.4,53.6,68,29.86,10.0,ESE,6.9,-,N/A,,Scattered Clouds,120,2013-05-26 05:43:00
12:50 AM,63,46,43,29.91,5,North,4.5,,,,,0,2013-05-26 05:50:00
1:49 AM,62.6,55.4,77,30.33,10.0,Calm,Calm,-,N/A,,Mostly Cloudy,0,2013-05-26 06:49:00
2:43 AM,62.6,55.4,77,30.32,10.0,NNE,4.6,-,N/A,,Mostly Cloudy,20,2013-05-26 07:43:00
3:51 AM,62.6,55.4,77,29.84,10.0,ENE,5.8,-,N/A,,Mostly Cloudy,60,2013-05-26 08:51:00
4:51 AM,60.8,57.2,88,30.29,8.0,Calm,Calm,-,N/A,,Mostly Cloudy,0,2013-05-26 09:51:00
5:45 AM,60.8,57.2,88,30.27,8.0,Calm,Calm,-,N/A,,Mostly Cloudy,0,2013-05-26 10:45:00
6:40 AM,59.0,55.4,88,29.86,8.0,Calm,Calm,-,N/A,,Scattered Clouds,0,2013-05-26 11:40:00
6:45 AM,58,57,94,29.97,6,Calm,Calm,,,,Haze,,2013-05-26 11:45:00
7:46 AM,57.2,55.4,94,30.27,7.0,Calm,Calm,-,N/A,,Scattered Clouds,0,2013-05-26 12:46:00
8:43 AM,64.4,53.6,68,30.28,9.0,East,4.6,-,N/A,,Scattered Clouds,100,2013-05-26 13:43:00
9:41 AM,66.2,51.8,60,29.87,9.0,East,5.8,-,N/A,,Scattered Clouds,100,2013-05-26 14:41:00
9:45 AM,67,57,62,30.01,7,South,2.2,,,,Haze,180,2013-05-26 14:45:00
10:56 AM,69.8,53.6,56,30.30,11.0,East,8.1,-,N/A,,Mostly Cloudy,90,2013-05-26 15:56:00
11:40 AM,73.4,51.8,47,30.29,11.0,East,9.2,-,N/A,,Mostly Cloudy,90,2013-05-26 16:40:00
12:43 PM,75.2,50.0,41,29.85,15.0,East,5.8,-,N/A,,Mostly Cloudy,90,2013-05-26 17:43:00
12:45 PM,73,51,34,29.97,7,ENE,4.5,,,,Haze,60,2013-05-26 17:45:00
1:40 PM,75.2,50.0,41,30.27,15.0,ENE,13.8,-,N/A,,Mostly Cloudy,70,2013-05-26 18:40:00
2:44 PM,75.2,50.0,41,30.24,15.0,East,16.1,-,N/A,,Mostly Cloudy,80,2013-05-26 19:44:00
3:50 PM,80,41,16,29.86,12,East,4.5,,,,Scattered Clouds,90,2013-05-26 20:50:00
3:51 PM,78.8,51.8,39,29.73,15.0,East,6.9,-,N/A,,Mostly Cloudy,100,2013-05-26 20:51:00
4:40 PM,78.8,48.2,34,30.18,15.0,NE,13.8,-,N/A,,Scattered Clouds,50,2013-05-26 21:40:00
5:51 PM,78.8,48.2,34,30.16,15.0,East,17.3,-,N/A,,Scattered Clouds,100,2013-05-26 22:51:00
6:40 PM,78.8,48.2,34,29.74,15.0,East,17.3,-,N/A,,Scattered Clouds,100,2013-05-26 23:40:00
6:50 PM,78,44,20,29.75,12,NE,4.5,,,,,40,2013-05-26 23:50:00
7:50 PM,73.4,51.8,47,30.18,15.0,East,16.1,-,N/A,,Partly Cloudy,100,2013-05-27 00:50:00
8:43 PM,66.2,51.8,60,30.22,15.0,East,17.3,-,N/A,,Scattered Clouds,100,2013-05-27 01:43:00
9:41 PM,66.2,55.4,68,29.83,12.0,ESE,9.2,-,N/A,,Scattered Clouds,110,2013-05-27 02:41:00
9:50 PM,68,48,38,29.77,5,NE,4.5,,,,,40,2013-05-27 02:50:00
10:41 PM,64.4,57.2,77,30.28,12.0,ESE,9.2,-,N/A,,Clear,120,2013-05-27 03:41:00
11:40 PM,62.6,57.2,82,30.29,12.0,South,9.2,-,N/A,,Clear,170,2013-05-27 04:40:00